• Join FlightAware (Why Join?)
  • Login
  • US Flag 
05:37PM EST


 

Airport Tracker/Info


-or-


 

Live Flight TrackerFlight Track Log ✈ UPS1083 ✈ 04-Jun-2013 ✈ KEWR - KSDF

Flight Track Log - Related Links

Times and Time Zones

All times are in EDT time to prevent confusion due to time zone crossing. See the UPS1083 flight status page for this flight to view local times or setup timezone preferences in your user account.

Time Position Orientation Groundspeed Altitude Reporting Facility
EDT Latitude Longitude Course Direction KTS MPH feet Rate Location/Type
10:33PM 40.7129 -74.1493 27° Northeast 176 203 1,400  Level FlightAware ADS-B
10:34PM 40.7403 -74.1291 29° Northeast 236 272 2,400 1,950 Climbing FlightAware ADS-B
10:34PM 40.7487 -74.1305 353° North 245 282 2,700 2,500 Climbing FlightAware ADS-B
10:34PM 40.7537 -74.1327 342° North 251 289 2,900 3,667 Climbing FlightAware ADS-B
10:34PM 40.7661 -74.1439 326° Northwest 255 293 3,800 4,125 Climbing FlightAware ADS-B
10:34PM 40.7689 -74.1481 311° West 260 299 4,000 3,429 Climbing FlightAware ADS-B
10:34PM 40.7717 -74.1536 304° West 264 304 4,200 2,571 Climbing FlightAware ADS-B
10:34PM 40.7734 -74.1580 297° West 268 308 4,300 2,571 Climbing FlightAware ADS-B
10:34PM 40.7750 -74.1633 292° West 270 311 4,500 3,429 Climbing FlightAware ADS-B
10:34PM 40.7759 -74.1681 284° West 270 311 4,700 3,750 Climbing FlightAware ADS-B
10:34PM 40.7769 -74.1763 279° West 273 314 5,000 3,857 Climbing FlightAware ADS-B
10:35PM 40.7773 -74.1910 272° West 272 313 5,600 4,200 Climbing FlightAware ADS-B
10:35PM 40.7758 -74.2432 268° West 272 313 7,800 4,216 Climbing FlightAware ADS-B
10:35PM 40.7752 -74.2537 266° West 277 319 8,200 3,882 Climbing FlightAware ADS-B
10:35PM 40.7739 -74.2722 265° West 274 315 8,900 3,500 Climbing FlightAware ADS-B
10:36PM 40.7718 -74.2937 263° West 283 326 9,600 2,318 Climbing FlightAware ADS-B
10:36PM 40.7652 -74.3486 261° West 320 368 10,600 1,967 Climbing FlightAware ADS-B
10:37PM 40.7588 -74.4116 262° West 355 409 11,600 2,000 Climbing FlightAware ADS-B
10:37PM 40.7582 -74.4179 263° West 272 313 11,700 3,214 Climbing FlightAware ADS-B
10:37PM 40.7522 -74.4729 262° West 367 422 13,100 3,310 Climbing FlightAware ADS-B
10:37PM 40.7511 -74.4814 260° West 370 426 13,300 3,097 Climbing FlightAware ADS-B
10:38PM 40.7436 -74.5417 261° West 379 436 14,700 3,290 Climbing FlightAware ADS-B
10:38PM 40.7425 -74.5522 262° West 380 437 15,000 3,176 Climbing FlightAware ADS-B
10:38PM 40.7349 -74.6220 262° West 388 447 16,500 2,694 Climbing FlightAware ADS-B
10:38PM 40.7302 -74.6648 262° West 384 442 17,200 2,538 Climbing FlightAware ADS-B
10:39PM 40.7274 -74.6811 257° West 386 444 17,600 3,231 Climbing FlightAware ADS-B
10:39PM 40.7239 -74.6949 252° West 389 448 17,900 3,000 Climbing FlightAware ADS-B
10:39PM 40.7211 -74.7035 247° West 393 452 18,100 2,647 Climbing FlightAware ADS-B
10:39PM 40.6964 -74.7691 244° Southwest 403 464 19,400 2,557 Climbing FlightAware ADS-B
10:40PM 40.6714 -74.8370 244° Southwest 411 473 20,700 2,557 Climbing FlightAware ADS-B
10:40PM 40.6464 -74.9050 244° Southwest 415 478 22,000 2,500 Climbing FlightAware ADS-B
10:41PM 40.6206 -74.9746 244° Southwest 425 489 23,200 2,361 Climbing FlightAware ADS-B
10:41PM 40.5934 -75.0480 244° Southwest 430 495 24,400 2,323 Climbing FlightAware ADS-B
10:42PM 40.5668 -75.1192 244° Southwest 435 501 25,600 2,164 Climbing FlightAware ADS-B
10:42PM 40.5397 -75.1917 244° Southwest 441 507 26,600 2,100 Climbing FlightAware ADS-B
10:43PM 40.5122 -75.2651 244° Southwest 443 510 27,700 2,164 Climbing FlightAware ADS-B
10:43PM 40.4849 -75.3381 244° Southwest 446 513 28,800 1,967 Climbing FlightAware ADS-B
10:44PM 40.4569 -75.4123 244° Southwest 452 520 29,700 1,500 Climbing FlightAware ADS-B
10:44PM 40.4282 -75.4875 243° Southwest 465 535 30,300 1,672 Climbing FlightAware ADS-B
10:45PM 40.3990 -75.5645 244° Southwest 462 532 31,400 2,361 Climbing FlightAware ADS-B
10:45PM 40.3706 -75.6393 244° Southwest 451 519 32,700 2,300 Climbing FlightAware ADS-B
10:46PM 40.3428 -75.7124 244° Southwest 449 517 33,700 1,869 Climbing FlightAware ADS-B
10:46PM 40.3148 -75.7860 244° Southwest 447 514 34,600 1,810 Climbing FlightAware ADS-B
10:47PM 40.2851 -75.8632 243° Southwest 443 510 35,600 1,839 Climbing FlightAware ADS-B
10:47PM 40.2577 -75.9347 243° Southwest 437 503 36,500 1,672 Climbing FlightAware ADS-B
10:48PM 40.2294 -76.0085 243° Southwest 432 497 37,300 1,452 Climbing FlightAware ADS-B
10:48PM 40.2021 -76.0790 243° Southwest 430 495 38,000 677 Climbing FlightAware ADS-B
10:49PM 40.1743 -76.1510 243° Southwest 428 493 38,000  Level FlightAware ADS-B
10:49PM 40.1463 -76.2238 243° Southwest 428 493 38,000  Level FlightAware ADS-B
10:50PM 40.1180 -76.2959 243° Southwest 431 496 38,000  Level FlightAware ADS-B
10:50PM 40.0854 -76.3658 239° Southwest 433 498 38,000  Level FlightAware ADS-B
10:51PM 40.0545 -76.4329 239° Southwest 432 497 38,000  Level FlightAware ADS-B
10:51PM 40.0235 -76.5004 239° Southwest 431 496 38,000  Level FlightAware ADS-B
10:52PM 39.9913 -76.5700 239° Southwest 432 497 38,000  Level FlightAware ADS-B
10:53PM 39.9602 -76.6370 239° Southwest 433 498 38,000  Level FlightAware ADS-B
10:53PM 39.9274 -76.7073 239° Southwest 433 498 38,000  Level FlightAware ADS-B
10:54PM 39.8954 -76.7756 239° Southwest 434 499 38,000  Level FlightAware ADS-B
10:54PM 39.8627 -76.8457 239° Southwest 436 502 38,000  Level FlightAware ADS-B
10:55PM 39.8312 -76.9128 239° Southwest 436 502 38,000  Level FlightAware ADS-B
10:55PM 39.7992 -76.9811 239° Southwest 437 503 38,000 98 Level FlightAware ADS-B
10:56PM 39.7671 -77.0493 239° Southwest 439 505 38,100 98 Climbing FlightAware ADS-B
10:56PM 39.7348 -77.1177 238° Southwest 439 505 38,100  Level FlightAware ADS-B
10:57PM 39.7021 -77.1870 238° Southwest 440 506 38,100 -98 Level FlightAware ADS-B
10:57PM 39.6700 -77.2547 238° Southwest 439 505 38,000 -100 Descending FlightAware ADS-B
10:58PM 39.6382 -77.3221 239° Southwest 437 503 38,000  Level FlightAware ADS-B
10:58PM 39.6060 -77.3902 238° Southwest 435 501 38,000  Level FlightAware ADS-B
10:59PM 39.5737 -77.4580 238° Southwest 436 502 38,000  Level FlightAware ADS-B
10:59PM 39.5398 -77.5284 238° Southwest 435 501 38,000  Level FlightAware ADS-B
11:00PM 39.5079 -77.5946 238° Southwest 433 498 38,000  Level FlightAware ADS-B
11:00PM 39.4750 -77.6631 238° Southwest 433 498 38,000  Level FlightAware ADS-B
11:01PM 39.4401 -77.7352 238° Southwest 433 498 38,000  Level FlightAware ADS-B
11:01PM 39.4083 -77.8013 238° Southwest 433 498 38,000  Level FlightAware ADS-B
11:02PM 39.3876 -77.8444 238° Southwest 434 499 38,000  Level FlightAware ADS-B
11:02PM 39.3797 -77.8630 241° Southwest 433 498 38,000  Level FlightAware ADS-B
11:02PM 39.3522 -77.9334 243° Southwest 434 499 38,000  Level FlightAware ADS-B
11:03PM 39.3237 -78.0048 243° Southwest 437 503 38,000 98 Level FlightAware ADS-B
11:03PM 39.2959 -78.0743 243° Southwest 437 503 38,100 94 Climbing FlightAware ADS-B
11:04PM 39.2648 -78.1526 243° Southwest 440 506 38,100  Level FlightAware ADS-B
11:04PM 39.2330 -78.2310 242° Southwest 441 507 38,100  Level FlightAware
11:05PM 39.1960 -78.3240 243° Southwest 442 509 38,100  Level FlightAware
11:06PM 39.1560 -78.4250 243° Southwest 441 507 38,100 -68 Level FlightAware
11:06PM 39.1150 -78.5270 243° Southwest 439 505 38,000 -71 Descending FlightAware
11:07PM 39.0760 -78.6210 242° Southwest 437 503 38,000  Level FlightAware
11:08PM 39.0360 -78.7200 243° Southwest 435 501 38,000  Level FlightAware
11:09PM 38.9990 -78.8110 242° Southwest 433 498 38,000  Level FlightAware
11:09PM 38.9620 -78.9020 242° Southwest 431 496 38,000  Level FlightAware
11:10PM 38.8970 -79.0600 242° Southwest 431 496 38,000  Level FlightAware
11:11PM 38.8600 -79.1490 242° Southwest 431 496 38,000  Level FlightAware
11:12PM 38.8310 -79.2530 250° West 423 487 38,000 73 Level FlightAware
11:12PM 38.8140 -79.3450 257° West 424 488 38,100 71 Climbing FlightAware
11:13PM 38.7930 -79.4600 257° West 425 489 38,100  Level FlightAware
11:14PM 38.7760 -79.5570 257° West 424 488 38,100  Level FlightAware
11:15PM 38.7580 -79.6560 257° West 424 488 38,100 -71 Level FlightAware
11:15PM 38.7380 -79.7610 256° West 426 490 38,000 -71 Descending FlightAware
11:16PM 38.7190 -79.8640 257° West 426 490 38,000  Level FlightAware
11:17PM 38.7000 -79.9690 257° West 426 490 38,000  Level FlightAware
11:17PM 38.6800 -80.0750 256° West 426 490 38,000  Level FlightAware
11:18PM 38.6610 -80.1750 256° West 425 489 38,000  Level FlightAware
11:19PM 38.6410 -80.2820 257° West 424 488 38,000  Level FlightAware
11:19PM 38.6230 -80.3790 257° West 424 488 38,000  Level FlightAware
11:20PM 38.5960 -80.5220 256° West 425 489 38,000  Level FlightAware
11:21PM 38.5770 -80.6190 256° West 424 488 38,000  Level FlightAware
11:22PM 38.5550 -80.7160 254° West 425 489 38,000  Level FlightAware
11:23PM 38.5250 -80.8240 250° West 428 493 38,000  Level FlightAware
11:23PM 38.4850 -80.9170 241° Southwest 428 493 38,000  Level FlightAware
11:24PM 38.4450 -81.0100 241° Southwest 428 493 38,000  Level FlightAware
11:25PM 38.4120 -81.1040 246° West 423 487 38,000  Level FlightAware
11:25PM 38.3880 -81.2050 253° West 424 488 38,000  Level FlightAware
11:26PM 38.3650 -81.3010 253° West 423 487 38,000  Level FlightAware
11:27PM 38.3400 -81.4060 253° West 424 488 38,000  Level FlightAware
11:27PM 38.3150 -81.5070 253° West 425 489 38,000  Level FlightAware
11:28PM 38.2920 -81.6000 253° West 425 489 38,000  Level FlightAware
11:28PM 38.2774 -81.6604 253° West 425 489 38,000  Level FlightAware ADS-B
11:29PM 38.2575 -81.7420 253° West 425 489 38,000  Level FlightAware ADS-B
11:30PM 38.2217 -81.8870 253° West 426 490 38,000  Level FlightAware ADS-B
11:31PM 38.1900 -82.0153 253° West 427 491 38,000  Level FlightAware ADS-B
11:32PM 38.1680 -82.1020 252° West 426 490 38,000  Level FlightAware
11:32PM 38.1598 -82.1363 253° West 426 490 38,000 -429 Level FlightAware ADS-B
11:33PM 38.1349 -82.2357 252° West 427 491 37,600 -720 Descending FlightAware ADS-B
11:33PM 38.1147 -82.3138 252° West 426 490 37,100 -971 Descending FlightAware ADS-B
11:34PM 38.0940 -82.3950 252° West 428 493 36,500 -935 Descending FlightAware
11:34PM 38.0687 -82.4968 253° West 426 490 35,900 -973 Descending FlightAware ADS-B
11:35PM 38.0491 -82.5752 252° West 436 502 35,300 -1,048 Descending FlightAware ADS-B
11:35PM 38.0298 -82.6515 252° West 436 502 34,800 -938 Descending FlightAware ADS-B
11:36PM 38.0092 -82.7324 252° West 440 506 34,300 -938 Descending FlightAware ADS-B
11:36PM 37.9898 -82.8074 252° West 444 511 33,800 -1,000 Descending FlightAware ADS-B
11:37PM 37.9676 -82.8944 252° West 443 510 33,200 -1,012 Descending FlightAware ADS-B
11:38PM 37.9380 -83.0110 252° West 443 510 32,400 -800 Descending FlightAware
11:39PM 37.9110 -83.1140 252° West 442 509 32,000 -293 Descending FlightAware
11:39PM 37.8880 -83.1980 251° West 442 509 32,000  Level FlightAware
11:40PM 37.8580 -83.3080 251° West 442 509 32,000  Level FlightAware
11:41PM 37.8310 -83.4080 251° West 442 509 32,000  Level FlightAware
11:41PM 37.8103 -83.4985 254° West 441 507 32,000 -1,895 Level FlightAware ADS-B
11:46PM 37.6693 -84.2021 256° West 445 512 22,400 -2,132 Descending FlightAware ADS-B
11:47PM 37.6660 -84.3510 268° West 412 474 19,600 -2,680 Descending FlightAware
11:48PM 37.6640 -84.4520 269° West 392 451 17,800 -1,704 Descending FlightAware
11:48PM 37.6620 -84.5320 268° West 386 444 17,300 -345 Descending FlightAware
11:49PM 37.6600 -84.6240 268° West 386 444 17,300  Level FlightAware
11:50PM 37.6580 -84.6910 268° West 386 444 17,300  Level FlightAware
11:50PM 37.6560 -84.7770 268° West 386 444 17,300  Level FlightAware
11:51PM 37.6520 -84.8900 267° West 386 444 17,300 -2,000 Level FlightAware
11:55PM 37.7890 -85.2150 298° West 288 331 8,500 -2,328 Descending FlightAware
11:56PM 37.8170 -85.2820 298° West 285 328 7,600 -1,151 Descending FlightAware
11:56PM 37.8350 -85.3250 298° West 285 328 7,100 -1,050 Descending FlightAware
11:56PM 37.8410 -85.3400 297° West 283 326 6,900 -1,200 Descending FlightAware
11:57PM 37.8590 -85.3830 298° West 279 321 6,300 -1,286 Descending FlightAware
11:57PM 37.8760 -85.4220 299° West 273 314 5,700 -1,179 Descending FlightAware
11:58PM 37.8910 -85.4610 296° West 267 307 5,200 -1,241 Descending FlightAware
11:58PM 37.9080 -85.5030 297° West 269 310 4,500 -1,821 Descending FlightAware
11:59PM 37.9240 -85.5400 299° West 276 318 3,500 -1,176 Descending FlightAware
11:59PM 37.9360 -85.5710 296° West 276 318 3,500 -439 Level FlightAware
12:00AM 37.9870 -85.6360 315° West 257 296 2,900 -414 Descending FlightAware
12:00AM 38.0150 -85.6630 323° Northwest 240 276 2,900 -130 Level FlightAware
12:01AM 38.0290 -85.6720 333° Northwest 227 261 2,800 -522 Descending FlightAware
12:01AM 38.0570 -85.6860 339° North 201 231 2,500 -724 Descending FlightAware
12:02AM 38.0810 -85.6950 344° North 178 205 2,100 -875 Descending FlightAware
12:02AM 38.0950 -85.7000 344° North 166 191 1,800 -923 Descending FlightAware
12:03AM 38.1190 -85.7080 345° North 159 183 1,300 -800 Descending FlightAware
12:03AM 38.1390 -85.7150 345° North 155 178 1,000 -778 Descending FlightAware
12:03AM 38.1560 -85.7210 344° North 151 174 600 -900 Descending FlightAware
12:04AM 38.1660 -85.7240 347° North 152 175 400 -857 Descending FlightAware
12:04AM 38.1810 -85.7300 343° North 18 21 -571 Descending FlightAware
12:06AM 38.1750 -85.7290 173° South 30 35  Level FlightAware
12:06AM 38.1710 -85.7280 169° South 21 24  Level FlightAware
12:10AM 38.1667 -85.7333 208° Southwest  Level FlightAware Approximate
12:11AM 38.1741 -85.7365 208° Southwest  Level Estimated